Flag for U.S.A. Weather past 2 weeks in Montpelier, Vermont, U.S.A.

Now
50 °F

Mostly cloudy.


Feels Like: 47 °F
Forecast: 38 / 56 °F
Wind: 7 mph from Northeast

Location: Knapp State Airport

Current Time: Sep 18, 2014 at 5:50:08 PM

Latest Report: Sep 18, 2014 at 4:51 PM


Visibility: 10 mi

Pressure: 30.13 "Hg

Humidity: 68%

Dew point: 40 °F

Location of MontpelierLocation

Historic Weather in Montpelier — Graph

°F

Montpelier temperature yesterday

Maximum temperature yesterday: 62 °F (at 12:51 PM)
Minimum temperature yesterday: 37 °F (at 7:03 AM)
Average temperature yesterday: 50 °F

Past Weeks' High & Low Weather Summary

 TemperatureHumidityPressure
High84 °F (Sep 5, 2:51 PM)100% (Sep 4, 4:04 AM)30.45 "Hg (Sep 4, 4:04 AM)
Low34 °F (Sep 15, 1:59 AM)43% (Sep 8, 1:51 PM)29.74 "Hg (Sep 11, 3:51 PM)
Average56 °F81%30.14 "Hg
* Reported Sep 3 3:51 PM — Sep 18 3:51 PM, Montpelier, Weather by CustomWeather, © 2014

Note: Actual official high and low records may vary slightly from our data, if they occured in-between our weather recording intervals... More about our weather records

Advertising

Montpelier weather history for previous 24 hours

 ConditionsComfort  
Time TempWeatherWind HumidityBarometerVisibility
3:51 PM
Sep 18
51 °FMostly cloudy.9 mph69%30.12 "Hg10 mi
2:51 PM52 °FOvercast.8 mph72%30.11 "Hg10 mi
1:51 PM54 °FCloudy.10 mph69%30.10 "Hg10 mi
12:51 PM53 °FMostly cloudy.8 mph77%30.09 "Hg10 mi
11:51 AM52 °FOvercast.8 mph80%30.09 "Hg10 mi
10:51 AM52 °FMostly cloudy.8 mph83%30.07 "Hg10 mi
9:51 AM50 °FLow clouds.7 mph96%30.07 "Hg10 mi
8:51 AM49 °FMostly cloudy.3 mph90%30.05 "Hg10 mi
7:51 AM46 °FMostly cloudy.No wind96%30.03 "Hg10 mi
6:51 AM45 °FMostly cloudy.No wind97%30.01 "Hg10 mi
5:51 AM43 °FOvercast.No wind97%29.98 "Hg10 mi
4:51 AM43 °FOvercast.No wind97%29.98 "Hg10 mi
3:51 AM41 °FFog.No wind96%29.97 "Hg3 mi
2:51 AM42 °FClear.3 mph96%29.97 "Hg10 mi
1:51 AM43 °FClear.No wind97%29.98 "Hg10 mi
12:51 AM44 °FMostly cloudy.No wind96%29.98 "Hg10 mi
11:51 PM
Sep 17
45 °FClear.3 mph93%29.99 "Hg10 mi
10:51 PM44 °FPassing clouds.5 mph93%30.00 "Hg10 mi
9:51 PM46 °FClear.3 mph93%30.00 "Hg10 mi
8:51 PM49 °FClear.No wind86%30.01 "Hg10 mi
7:51 PM53 °FSunny.6 mph69%30.00 "Hg10 mi
6:51 PM55 °FPassing clouds.5 mph69%30.01 "Hg10 mi
5:51 PM60 °FSunny.6 mph52%29.99 "Hg10 mi
Weather by CustomWeather, © 2014

See weather overviewHow to use our weather pages